Location: ??? ???
(33.4974°N, 35.4618°E)
Time: 12:08:09
(UTC+00:00)

Cosmos 1980 Rocket - Pass Details

Date: 29 October 2020
Orbit: 831 x 848 km, 71.0° (Epoch: 27 November)

Event Time Altitude Azimuth Distance (km) Brightness Sun altitude
Rises 15:44:19 0° 181° (S) 3,378 5.5 -12.1°
Reaches altitude 10° 15:46:51 10° 174° (S) 2,444 4.6 -12.7°
Maximum altitude 15:52:06 42° 105° (ESE) 1,174 2.5 -13.8°
Drops below altitude 10° 15:57:21 10° 36° (NE) 2,447 4.2 -14.8°
Enters shadow 15:57:40 - 35° (NE) 2,559 4.3 -14.9°
